Location: Recife
(8.0585°S, 34.8848°W)
Time: 12:59:14
(UTC-03:00)

Vanguard 1 - Pass Details

Date: 16 April 2026
Orbit: 654 x 3817 km, 34.3° (Epoch: 11 May)

Event Time Altitude Azimuth Distance (km) Brightness Sun altitude
Rises 19:02:16 0° 242° (WSW) 5,400 14.6 -26.6°
Reaches altitude 10° 19:05:12 10° 244° (WSW) 4,731 14.2 -27.4°
Maximum altitude 19:19:52 68° 324° (NW) 3,340 12.7 -31.0°
Drops below altitude 10° 19:42:48 10° 43° (NE) 6,910 14.0 -36.6°
Sets 19:48:18 0° 46° (NE) 7,894 14.4 -37.9°
